[[{"header":{"parameterUnit":"m.s-1","parameterCategory":1,"la1":30.2991,"la2":30.254,"lo1":-89.0895,"lo2":-89.0444,"dx":0.0017,"dy":0.0017,"nx":28,"ny":28,"refTime":"2022-11-08T09:00:00:Z","depth":0,"parameterNumber":2,"parameterNumberName":"U-component_of_WINDS"},"data":[0,0,0,0,0,0,0,0,0,0,0,0,0,0,0,0,0,0,0,0,0,0,0,0,0,0,0,0,0,0,0,0,0,0,0,0,0,0,0,0,0,0,0,0,0,0,0,0,0,0,0,0,0,0,0,0,0,0,-1.7959,-1.796,0,-1.7983,-1.7983,-1.7984,-1.7965,-1.7964,-1.7963,-1.7962,-1.7987,-1.7988,-1.7989,0,0,0,0,0,0,0,0,0,0,0,0,0,-1.7897,-1.7898,-1.7959,-1.796,-1.796,-1.7983,-1.7983,-1.7984,-1.7965,-1.7964,-1.7963,-1.7962,-1.7986,-1.7988,-1.799,0,0,0,0,0,0,0,0,0,0,0,0,0,-1.7923,-1.7899,-1.7959,-1.7953,-1.7953,-1.7983,-1.7983,-1.7984,-1.7965,-1.7964,-1.7963,-1.7962,-1.7986,-1.7988,-1.799,-1.8027,0,0,-1.7996,-1.7997,0,0,0,0,0,0,0,0,-1.7921,-1.7925,-1.7954,-1.7954,-1.7953,-1.797,-1.797,-1.7998,-1.7965,-1.7961,-1.7962,-1.7961,-1.7982,-1.7984,-1.7991,-1.8028,-1.8029,-1.7996,-1.7998,-1.7999,-1.7999,0,0,0,0,0,0,0,-1.792,-1.7924,-1.7969,-1.7954,-1.7954,-1.7949,-1.7952,-1.7976,-1.7978,-1.7961,-1.796,-1.7963,-1.7982,-1.7989,-1.7992,-1.803,-1.7996,-1.7998,-1.7999,-1.8,-1.8097,-1.8098,0,0,0,0,0,0,-1.7919,-1.7923,-1.7968,-1.7969,-1.7934,-1.7951,-1.7954,-1.7966,-1.7977,-1.7978,-1.7964,-1.7962,-1.7986,-1.7989,-1.7993,-1.8037,-1.7999,-1.8001,-1.8002,-1.8096,-1.8098,-1.8099,0,0,0,0,0,0,-1.7917,-1.7923,-1.7967,-1.7946,-1.7951,-1.7954,-1.7967,-1.7967,-1.7975,-1.798,-1.798,-1.7971,-1.7986,-1.799,-1.8018,-1.8037,-1.8001,-1.8003,-1.8094,-1.8096,-1.8098,-1.8125,0,0,0,0,0,0,-1.7916,-1.7922,-1.7937,-1.7946,-1.7952,-1.7993,-1.7968,-1.7968,-1.7978,-1.7976,-1.7987,-1.7987,-1.7985,-1.8015,-1.8021,-1.8039,-1.8005,-1.8093,-1.8095,-1.8098,-1.8122,-1.8128,-1.8132,0,0,0,0,0,-1.7913,-1.7943,-1.7938,-1.7943,-1.797,-1.7994,-1.7997,-1.7994,-1.798,-1.7994,-1.7997,-1.7987,-1.8034,-1.8019,-1.8024,-1.8044,-1.8092,-1.8095,-1.8097,-1.812,-1.8126,-1.8132,0,0,0,0,0,0,-1.7936,-1.7944,-1.7938,-1.7972,-1.7982,-1.7991,-1.8008,-1.8001,-1.8015,-1.8012,-1.8008,-1.801,-1.804,-1.8045,-1.8027,-1.808,-1.8061,-1.8065,-1.8076,-1.8082,-1.8087,-1.8085,-1.8007,0,0,0,0,0,-1.7945,-1.7964,-1.797,-1.7999,-1.8005,-1.8006,-1.8016,-1.8012,-1.8023,-1.8027,-1.8032,-1.8043,-1.806,-1.8071,-1.8087,-1.8123,-1.8125,-1.8139,-1.8144,-1.8148,-1.8152,-1.817,-1.8177,-1.8109,-1.8109,-1.8109,0,0,-1.7964,-1.797,-1.7983,-1.8004,-1.8011,-1.8031,-1.801,-1.8031,-1.8045,-1.803,-1.8058,-1.8062,-1.8073,-1.8105,-1.812,-1.811,-1.8171,-1.8152,-1.8155,-1.8156,-1.8174,-1.818,-1.8186,-1.8111,-1.811,-1.811,0,0,-1.8007,-1.8015,-1.8039,-1.8047,-1.8059,-1.806,-1.8066,-1.8075,-1.8077,-1.8104,-1.8094,-1.811,-1.814,-1.8149,-1.8157,-1.8203,-1.8194,-1.8209,-1.8234,-1.8252,-1.8257,-1.8262,-1.8278,-1.8284,-1.8212,-1.8212,-1.8212,0,-1.8029,-1.8057,-1.8053,-1.8075,-1.8085,-1.8073,-1.8098,-1.8105,-1.8122,-1.8129,-1.8118,-1.8154,-1.8161,-1.8195,-1.8206,-1.8213,-1.822,-1.8207,-1.8257,-1.8261,-1.8266,-1.8281,-1.8287,-1.8214,-1.8214,-1.8214,-1.8213,0,-1.8083,-1.8103,-1.8122,-1.8138,-1.8149,-1.8173,-1.8172,-1.8184,-1.818,-1.8182,-1.8209,-1.8217,-1.8234,-1.8242,-1.8238,-1.8275,-1.8269,-1.8257,-1.8237,-1.8274,-1.8288,-1.8294,-1.8216,-1.8216,-1.8215,-1.8215,0,0,-1.8142,-1.8155,-1.8162,-1.8169,-1.8181,-1.8196,-1.8218,-1.8235,-1.8246,-1.8257,-1.8276,-1.8301,-1.8291,-1.83,-1.8297,-1.8313,-1.8348,-1.8299,-1.8299,-1.8308,-1.8389,-1.8397,-1.8404,-1.8342,-1.8344,-1.8344,-1.8388,0,-1.8185,-1.8225,-1.8222,-1.8259,-1.8277,-1.8266,-1.8285,-1.8295,-1.8297,-1.8312,-1.8314,-1.8332,-1.8317,-1.8322,-1.8338,-1.8341,-1.8364,-1.8338,-1.8359,-1.836,-1.8356,-1.8411,-1.842,-1.8461,-1.8393,-1.8394,-1.8395,0,-1.8242,-1.8255,-1.8294,-1.8303,-1.831,-1.8328,-1.8343,-1.8358,-1.8368,-1.8368,-1.8379,-1.8373,-1.8395,-1.8375,-1.8406,-1.8388,-1.8396,-1.8399,-1.84,-1.8402,-1.8379,-1.8414,-1.8474,-1.8479,-1.8404,-1.8403,-1.8403,0,-1.828,-1.8308,-1.8334,-1.8341,-1.8352,-1.8364,-1.837,-1.8379,-1.8389,-1.8402,-1.8408,-1.8424,-1.8432,-1.8444,-1.8442,-1.8428,-1.8473,-1.8453,-1.8474,-1.8474,-1.8483,-1.8483,-1.8545,-1.849,-1.849,-1.849,-1.849,0,-1.8328,-1.8353,-1.8352,-1.8368,-1.8395,-1.8391,-1.8417,-1.8421,-1.8429,-1.8446,-1.8437,-1.8453,-1.845,-1.8465,-1.8464,-1.8489,-1.8493,-1.8494,-1.8493,-1.8494,-1.8494,-1.85,-1.8496,-1.8491,-1.8491,-1.8491,-1.8491,0,-1.8375,-1.8376,-1.8404,-1.8412,-1.8415,-1.8434,-1.8441,-1.8456,-1.8457,-1.8479,-1.8483,-1.8485,-1.8503,-1.8503,-1.8523,-1.8522,-1.8553,-1.8549,-1.855,-1.8549,-1.8569,-1.8567,-1.8636,-1.8645,-1.8585,-1.8586,-1.8586,0,-1.8406,-1.8424,-1.8435,-1.8445,-1.8451,-1.8468,-1.8479,-1.8476,-1.8486,-1.8499,-1.8513,-1.853,-1.8544,-1.8573,-1.8576,-1.8591,-1.8588,-1.8611,-1.859,-1.859,-1.8587,-1.8586,-1.8587,-1.8615,-1.8616,-1.8616,-1.8617,0,-1.8461,-1.846,-1.8475,-1.849,-1.8503,-1.8515,-1.8525,-1.8535,-1.8533,-1.8545,-1.8564,-1.8574,-1.8595,-1.8612,-1.8627,-1.8632,-1.8624,-1.8623,-1.8629,-1.863,-1.8629,-1.8629,-1.856,-1.8622,-1.8621,-1.8621,-1.862,-1.862,-1.85,-1.8516,-1.8525,-1.8542,-1.855,-1.856,-1.8575,-1.8578,-1.8593,-1.861,-1.8607,-1.8627,-1.8637,-1.8656,-1.8662,-1.8678,-1.8669,-1.8677,-1.8679,-1.8681,-1.8683,-1.8627,-1.868,-1.868,-1.868,-1.868,-1.868,0,-1.8554,-1.8559,-1.8575,-1.859,-1.8604,-1.8595,-1.8607,-1.8618,-1.8636,-1.8646,-1.8659,-1.868,-1.8696,-1.8701,-1.8716,-1.8728,-1.8724,-1.8732,-1.8731,-1.8732,-1.869,-1.8683,-1.8734,-1.8734,-1.8734,-1.8734,-1.8734,-1.8734,-1.8583,-1.8609,-1.8609,-1.8638,-1.8643,-1.8663,-1.8671,-1.868,-1.8687,-1.8711,-1.8724,-1.8727,-1.8734,-1.875,-1.8765,-1.8766,-1.8771,-1.878,-1.878,-1.874,-1.8735,-1.873,-1.8723,-1.8782,-1.8782,-1.882,-1.882,-1.882]},{"header":{"parameterUnit":"m.s-1","parameterCategory":1,"la1":30.2991,"la2":30.254,"lo1":-89.0895,"lo2":-89.0444,"dx":0.0017,"dy":0.0017,"nx":28,"ny":28,"refTime":"2022-11-08T09:00:00:Z","depth":0,"parameterNumber":3,"parameterNumberName":"V-component_of_WINDS"},"data":[0,0,0,0,0,0,0,0,0,0,0,0,0,0,0,0,0,0,0,0,0,0,0,0,0,0,0,0,0,0,0,0,0,0,0,0,0,0,0,0,0,0,0,0,0,0,0,0,0,0,0,0,0,0,0,0,0,0,-2.2025,-2.2025,0,-2.2047,-2.2048,-2.2048,-2.2023,-2.2022,-2.2021,-2.202,-2.2041,-2.2042,-2.2043,0,0,0,0,0,0,0,0,0,0,0,0,0,-2.1958,-2.1959,-2.2025,-2.2025,-2.2026,-2.2047,-2.2048,-2.2048,-2.2023,-2.2022,-2.2021,-2.202,-2.204,-2.2042,-2.2044,0,0,0,0,0,0,0,0,0,0,0,0,0,-2.1984,-2.196,-2.2025,-2.2016,-2.2015,-2.2047,-2.2048,-2.2048,-2.2024,-2.2022,-2.2021,-2.2019,-2.204,-2.2042,-2.2044,-2.2085,0,0,-2.205,-2.2051,0,0,0,0,0,0,0,0,-2.1983,-2.1987,-2.2017,-2.2017,-2.2016,-2.2031,-2.2031,-2.206,-2.2024,-2.202,-2.202,-2.2019,-2.2038,-2.2041,-2.2048,-2.2086,-2.2087,-2.205,-2.2052,-2.2053,-2.2053,0,0,0,0,0,0,0,-2.1981,-2.1986,-2.2034,-2.2017,-2.2017,-2.201,-2.2012,-2.2037,-2.2037,-2.2021,-2.2019,-2.2022,-2.2038,-2.2046,-2.2048,-2.2087,-2.205,-2.2052,-2.2054,-2.2054,-2.216,-2.2161,0,0,0,0,0,0,-2.198,-2.1984,-2.2033,-2.2034,-2.1996,-2.2012,-2.2015,-2.2028,-2.2037,-2.2037,-2.2023,-2.2021,-2.2043,-2.2046,-2.2049,-2.2097,-2.2053,-2.2055,-2.2056,-2.2158,-2.216,-2.2162,0,0,0,0,0,0,-2.1979,-2.1985,-2.2032,-2.2009,-2.2014,-2.2015,-2.203,-2.2029,-2.2037,-2.2039,-2.2038,-2.2031,-2.2042,-2.2046,-2.2076,-2.2098,-2.2056,-2.2058,-2.2156,-2.2159,-2.2161,-2.2195,0,0,0,0,0,0,-2.1977,-2.1985,-2.2001,-2.2009,-2.2016,-2.206,-2.2031,-2.203,-2.2041,-2.2038,-2.2046,-2.2046,-2.2041,-2.2073,-2.2078,-2.21,-2.2059,-2.2154,-2.2157,-2.216,-2.2192,-2.2198,-2.2204,0,0,0,0,0,-2.1975,-2.2009,-2.2002,-2.2008,-2.2036,-2.2062,-2.2065,-2.2059,-2.2043,-2.2059,-2.206,-2.2046,-2.2095,-2.2077,-2.2082,-2.2105,-2.2153,-2.2157,-2.216,-2.2189,-2.2197,-2.2203,0,0,0,0,0,0,-2.2002,-2.201,-2.2002,-2.204,-2.2051,-2.2057,-2.2077,-2.2067,-2.2082,-2.2078,-2.207,-2.2072,-2.2104,-2.2107,-2.2087,-2.2145,-2.2121,-2.2126,-2.2142,-2.2149,-2.2154,-2.2153,-2.2061,0,0,0,0,0,-2.2013,-2.2034,-2.2039,-2.2072,-2.2078,-2.2077,-2.2088,-2.2082,-2.2092,-2.2096,-2.2099,-2.2109,-2.2126,-2.2137,-2.2153,-2.2192,-2.2194,-2.221,-2.2216,-2.2221,-2.2225,-2.2246,-2.2253,-2.2173,-2.2173,-2.2173,0,0,-2.2035,-2.2042,-2.2055,-2.2078,-2.2085,-2.2106,-2.2081,-2.2104,-2.2119,-2.2099,-2.2129,-2.2131,-2.2141,-2.2176,-2.2191,-2.2179,-2.2248,-2.2225,-2.2229,-2.2231,-2.225,-2.2258,-2.2264,-2.2175,-2.2175,-2.2174,0,0,-2.2085,-2.2093,-2.2121,-2.2129,-2.2141,-2.214,-2.2147,-2.2155,-2.2157,-2.2186,-2.2172,-2.2189,-2.2219,-2.2227,-2.2235,-2.2288,-2.2276,-2.2294,-2.2324,-2.2344,-2.235,-2.2356,-2.2375,-2.2382,-2.2298,-2.2298,-2.2298,0,-2.2111,-2.2143,-2.2137,-2.2162,-2.2172,-2.2156,-2.2184,-2.2192,-2.2208,-2.2215,-2.2201,-2.2239,-2.2244,-2.228,-2.2294,-2.23,-2.2307,-2.2293,-2.235,-2.2355,-2.236,-2.2378,-2.2386,-2.23,-2.23,-2.2299,-2.2299,0,-2.2173,-2.2196,-2.2217,-2.2234,-2.2247,-2.2273,-2.227,-2.2283,-2.2277,-2.2277,-2.2307,-2.2313,-2.233,-2.2338,-2.2332,-2.2373,-2.2366,-2.2351,-2.2327,-2.237,-2.2387,-2.2394,-2.2303,-2.2302,-2.2301,-2.2301,0,0,-2.2242,-2.2255,-2.2263,-2.2271,-2.2283,-2.2299,-2.2324,-2.2342,-2.2353,-2.2365,-2.2385,-2.2411,-2.2398,-2.2407,-2.2401,-2.2419,-2.2461,-2.2402,-2.2402,-2.2413,-2.2507,-2.2518,-2.2526,-2.2453,-2.2454,-2.2455,-2.2506,0,-2.2292,-2.2337,-2.2333,-2.2375,-2.2395,-2.238,-2.2402,-2.2411,-2.2412,-2.2429,-2.2429,-2.2448,-2.2429,-2.2434,-2.2451,-2.2452,-2.2479,-2.2448,-2.2471,-2.2472,-2.2469,-2.2534,-2.2546,-2.2594,-2.2512,-2.2514,-2.2514,0,-2.2358,-2.2373,-2.2417,-2.2426,-2.2434,-2.2454,-2.247,-2.2486,-2.2496,-2.2495,-2.2505,-2.2497,-2.2521,-2.2497,-2.253,-2.2509,-2.2517,-2.2519,-2.2521,-2.2523,-2.2496,-2.2538,-2.2609,-2.2616,-2.2525,-2.2524,-2.2523,0,-2.2403,-2.2434,-2.2465,-2.2472,-2.2483,-2.2497,-2.2502,-2.2511,-2.2521,-2.2535,-2.2542,-2.2557,-2.2566,-2.2578,-2.2573,-2.2556,-2.2607,-2.2582,-2.2606,-2.2607,-2.2618,-2.2617,-2.2691,-2.2624,-2.2624,-2.2624,-2.2623,0,-2.246,-2.2488,-2.2485,-2.2504,-2.2535,-2.2529,-2.2559,-2.2562,-2.257,-2.2588,-2.2576,-2.2593,-2.2586,-2.2603,-2.2599,-2.2627,-2.2631,-2.2631,-2.2629,-2.2632,-2.2632,-2.2637,-2.2634,-2.2625,-2.2625,-2.2625,-2.2624,0,-2.2516,-2.2515,-2.2548,-2.2556,-2.2559,-2.2581,-2.2587,-2.2605,-2.2605,-2.2628,-2.2633,-2.2633,-2.2652,-2.2649,-2.2669,-2.2667,-2.2702,-2.2696,-2.2699,-2.2698,-2.2722,-2.272,-2.2802,-2.2813,-2.2739,-2.2739,-2.274,0,-2.2552,-2.2574,-2.2584,-2.2597,-2.2603,-2.2622,-2.2634,-2.2628,-2.264,-2.2653,-2.2669,-2.2687,-2.2701,-2.2732,-2.2733,-2.2749,-2.2744,-2.2772,-2.2746,-2.2748,-2.2744,-2.2743,-2.2745,-2.2777,-2.2778,-2.2778,-2.2779,0,-2.2617,-2.2616,-2.2633,-2.2651,-2.2665,-2.2678,-2.269,-2.27,-2.2696,-2.271,-2.273,-2.2741,-2.2763,-2.2781,-2.2795,-2.2799,-2.2788,-2.2787,-2.2794,-2.2796,-2.2797,-2.2797,-2.2713,-2.2785,-2.2785,-2.2784,-2.2784,-2.2784,-2.2664,-2.2683,-2.2693,-2.2713,-2.2721,-2.2733,-2.275,-2.2752,-2.2769,-2.2787,-2.2782,-2.2805,-2.2814,-2.2833,-2.2838,-2.2855,-2.2845,-2.2854,-2.2857,-2.2859,-2.2862,-2.2794,-2.2858,-2.2858,-2.2858,-2.2857,-2.2857,0,-2.2729,-2.2735,-2.2753,-2.277,-2.2786,-2.2775,-2.2788,-2.2801,-2.2821,-2.2831,-2.2845,-2.2868,-2.2886,-2.2888,-2.2905,-2.2918,-2.2913,-2.2922,-2.2921,-2.2922,-2.287,-2.2863,-2.2926,-2.2926,-2.2925,-2.2925,-2.2925,-2.2925,-2.2764,-2.2794,-2.2794,-2.2829,-2.2834,-2.2857,-2.2865,-2.2875,-2.2883,-2.2909,-2.2924,-2.2926,-2.2933,-2.2949,-2.2965,-2.2965,-2.2971,-2.2983,-2.2981,-2.2932,-2.2926,-2.2919,-2.2912,-2.2984,-2.2984,-2.3031,-2.3031,-2.3032]}]]